Weather History for Belize, Belize

Change the Weather History Date:

Wednesday, October 26, 2011

  Actual Average Record
Temperature  
Mean Temperature 76 °F -  
Max Temperature 80 °F 85 °F 89 °F (1996)
Min Temperature 71 °F 71 °F 68 °F (1999)
Cooling Degree Days 10    
Growing Degree Days 26 (Base 50)    
Moisture  
Dew Point 71 °F    
Average Humidity 86    
Maximum Humidity 94    
Minimum Humidity 74    
Precipitation  
Precipitation 0.08 in 0.25 in - ()
Sea Level Pressure  
Sea Level Pressure 29.87 in    
Wind  
Wind Speed 7 mph ()    
Max Wind Speed 12 mph    
Max Gust Speed -    
Visibility 7.6 miles    
Events Rain    
Averages and records for this station are not official NWS values.
T = Trace of Precipitation, MM = Missing Value Source: Averaged Metar Reports

Daily Weather History Graph

Daily Weather History Graph

Search for Another Location

Airport:

Trip Planner

Search our weather history database for the weather conditions in past years. The results will help you decide how hot, cold, wet, or windy it might be!

Date:

Astronomy

Oct. 26, 2011 Rise Set
Actual Time 5:49 AM CST 5:24 PM CST
Civil Twilight 5:27 AM CST 5:46 PM CST
Nautical Twilight 5:01 AM CST 6:12 PM CST
Astronomical Twilight 4:36 AM CST 6:37 PM CST
Moon 5:30 AM CST (10/26) 5:17 PM CST (10/26)
Length of Visible Light 12h 19m
Length of Day
11h 34m
Waning Crescent, 0% of the Moon is Illuminated
Oct 26
Waning Crescent
Oct 26
New
Nov 2
First Quarter
Nov 10
Full
Nov 18
Last Quarter

Hourly Weather History & Observations

Time (CST) Temp. Heat Index Dew Point Humidity Pressure Visibility Wind Dir Wind Speed Gust Speed Precip Events Conditions
12:00 AM 72 °F - 68 °F 83% 29.90 in 12 mi West 8.1 mph - -  
12:00 AM 77.0 °F - 68.0 °F 74% 29.95 in 6.2 mi WNW 8.1 mph - N/A   Mostly Cloudy
3:00 AM 73 °F - 68 °F 80% 29.88 in 11 mi West 8.1 mph - -   Mostly Cloudy
3:00 AM 73.4 °F - 68.0 °F 83% 29.88 in 6.2 mi West 8.1 mph - N/A   Mostly Cloudy
6:00 AM 71.6 °F - 68.0 °F 88% 29.90 in 6.2 mi West 8.1 mph - N/A   Mostly Cloudy
7:00 AM 71.6 °F - 68.0 °F 88% 29.91 in 6.2 mi West 9.2 mph - N/A Rain Light Rain
8:00 AM 71.6 °F - 69.8 °F 94% 29.93 in 6.2 mi WNW 8.1 mph - N/A Rain Light Rain
9:00 AM 72 °F - 71 °F 94% 29.95 in 9 mi WNW 5.8 mph - - Rain Light Rain
9:00 AM 78.8 °F - 71.6 °F 78% 29.80 in 6.2 mi West 9.2 mph - N/A Rain Light Rain Showers
10:00 AM 73.4 °F - 71.6 °F 94% 29.94 in 6.2 mi WNW 8.1 mph - N/A Rain Light Rain
11:00 AM 73.4 °F - 71.6 °F 94% 29.92 in 6.2 mi West 8.1 mph - N/A Rain Rain
12:00 PM 74 °F - 72 °F 90% 29.90 in 7 mi West 9.2 mph - - Rain Light Rain
12:00 PM 73.4 °F - 71.6 °F 94% 29.89 in 6.2 mi West 9.2 mph - N/A Rain Light Rain
1:00 PM 77.0 °F - 73.4 °F 89% 29.85 in 6.2 mi West 11.5 mph - N/A   Mostly Cloudy
2:00 PM 80.6 °F 84.6 °F 71.6 °F 74% 29.80 in 6.2 mi West 9.2 mph - N/A   Mostly Cloudy
3:00 PM 80 °F - 74 °F 77% 29.79 in 12 mi WSW 6.9 mph - -  
3:00 PM - - - N/A% - 6.2 mi North - - N/A   Mostly Cloudy
4:00 PM 80.6 °F 85.4 °F 73.4 °F 79% 29.79 in 6.2 mi West 8.1 mph - N/A   Mostly Cloudy
5:00 PM 78.8 °F - 71.6 °F 78% 29.80 in 6.2 mi West 9.2 mph - N/A   Mostly Cloudy
6:00 PM 76 °F - 71 °F 82% 29.83 in 12 mi West 6.9 mph - - Rain Light Rain Showers
6:00 PM 77.0 °F - 71.6 °F 83% 29.83 in 6.2 mi West 6.9 mph - N/A Rain Light Rain Showers
9:00 PM 72 °F - 70 °F 92% 29.88 in 12 mi West 6.9 mph - -   Partly Cloudy
9:00 PM 71.6 °F - 69.8 °F 94% 29.87 in 6.2 mi West 6.9 mph - N/A   Mostly Cloudy